Weather History for Hibbing, MN

Change the Weather History Date:

Sunday, February 24, 2013

  Actual Average Record
Temperature  
Mean Temperature 20 °F -  
Max Temperature 36 °F 26 °F 57 °F (1976)
Min Temperature 3 °F 6 °F -33 °F (1965)
Degree Days  
Heating Degree Days 46    
Moisture  
Dew Point 9 °F    
Average Humidity 76    
Maximum Humidity 96    
Minimum Humidity 50    
Precipitation  
Precipitation 0.00 in - - ()
Sea Level Pressure  
Sea Level Pressure 30.01 in    
Wind  
Wind Speed 1 mph (WNW)    
Max Wind Speed 9 mph    
Max Gust Speed -    
Visibility 7 miles    
Events Fog    
Averages and records for this station are not official NWS values.
T = Trace of Precipitation, MM = Missing Value Source: NWS Daily Summary

Daily Weather History Graph

Daily Weather History Graph

Search for Another Location

Airport:

Trip Planner

Search our weather history database for the weather conditions in past years. The results will help you decide how hot, cold, wet, or windy it might be!

Date:

Astronomy

Feb. 24, 2013 Rise Set
Actual Time 7:00 AM CST 5:49 PM CST
Civil Twilight 6:29 AM CST 6:20 PM CST
Nautical Twilight 5:53 AM CST 6:55 PM CST
Astronomical Twilight 5:18 AM CST 7:31 PM CST
Moon 5:01 PM CST (2/24) 5:59 AM CST (2/24)
Length of Visible Light 11h 50m
Length of Day
10h 48m
Waxing Gibbous, 99% of the Moon is Illuminated
Feb 24
Waxing Gibbous
Feb 25
Full
Mar 4
Last Quarter
Mar 11
New
Mar 19
First Quarter

Hourly Weather History & Observations

Time (CST) Temp. Windchill Dew Point Humidity Pressure Visibility Wind Dir Wind Speed Gust Speed Precip Events Conditions
12:53 AM 12.9 °F - 8.1 °F 81% 29.96 in 10.0 mi Calm Calm - N/A   Clear
1:25 AM 10.4 °F 4.0 °F 6.8 °F 85% 29.90 in 10.0 mi NW 3.5 mph - N/A   Clear
1:53 AM 9.0 °F - 5.0 °F 84% 29.98 in 5.0 mi Calm Calm - N/A   Clear
2:12 AM 8.6 °F 2.0 °F 3.2 °F 79% 29.90 in 1.2 mi WNW 3.5 mph - N/A   Clear
2:16 AM 8.6 °F 2.0 °F 3.2 °F 79% 29.90 in 4.0 mi NW 3.5 mph - N/A   Haze
2:53 AM 9.0 °F - 5.0 °F 84% 29.99 in 3.0 mi Calm Calm - N/A   Clear
2:56 AM 8.6 °F - 5.0 °F 85% 29.91 in 1.8 mi Calm Calm - N/A   Clear
3:03 AM 8.6 °F 2.0 °F 3.2 °F 79% 29.91 in 0.2 mi NNW 3.5 mph - N/A Fog Light Freezing Fog
3:15 AM 8.6 °F - 3.2 °F 79% 29.91 in 0.8 mi Calm Calm - N/A   Haze
3:21 AM 8.6 °F - 3.2 °F 79% 29.91 in 3.0 mi Calm Calm - N/A   Haze
3:39 AM 6.8 °F - 3.2 °F 85% 29.92 in 8.0 mi Calm Calm - N/A   Partly Cloudy
3:42 AM 6.8 °F - 3.2 °F 85% 29.92 in 1.5 mi Calm Calm - N/A   Partly Cloudy
3:44 AM 6.8 °F - 3.2 °F 85% 29.92 in 0.8 mi Calm Calm - N/A   Mist
3:53 AM 7.0 °F - 3.0 °F 84% 30.00 in 0.5 mi Calm Calm - N/A Fog Light Freezing Fog
4:08 AM 6.8 °F - 3.2 °F 85% 29.92 in 1.0 mi Calm Calm - N/A   Clear
4:14 AM 6.8 °F - 1.4 °F 79% 29.93 in 4.0 mi Calm Calm - N/A   Clear
4:53 AM 5.0 °F - -0.0 °F 80% 30.01 in 10.0 mi Calm Calm - N/A   Clear
5:53 AM 3.0 °F - -0.9 °F 84% 30.03 in 10.0 mi Calm Calm - N/A   Clear
6:53 AM 3.0 °F - -4.0 °F 73% 30.04 in 10.0 mi Calm Calm - N/A   Clear
7:53 AM 3.0 °F - -2.0 °F 80% 30.06 in 10.0 mi Calm Calm - N/A   Clear
8:53 AM 9.0 °F - 8.1 °F 96% 30.08 in 10.0 mi Calm Calm - N/A   Clear
9:53 AM 21.0 °F - 15.1 °F 78% 30.07 in 10.0 mi Calm Calm - N/A   Clear
10:53 AM 28.0 °F - 18.0 °F 66% 30.07 in 10.0 mi Calm Calm - N/A   Clear
11:53 AM 35.1 °F - 19.0 °F 52% 30.07 in 10.0 mi Calm Calm - N/A   Clear
12:53 PM 35.1 °F 30.1 °F 19.9 °F 54% 30.07 in 10.0 mi North 5.8 mph - N/A   Clear
1:53 PM 34.0 °F 26.6 °F 21.0 °F 59% 30.06 in 10.0 mi NW 9.2 mph - N/A   Clear
2:53 PM 36.0 °F 30.3 °F 19.0 °F 50% 30.06 in 10.0 mi WNW 6.9 mph - N/A   Clear
3:53 PM 35.1 °F 30.1 °F 19.9 °F 54% 30.06 in 10.0 mi WNW 5.8 mph - N/A   Clear
4:53 PM 30.9 °F 27.5 °F 19.0 °F 61% 30.07 in 10.0 mi WNW 3.5 mph - N/A   Clear
5:53 PM 28.0 °F - 18.0 °F 66% 30.08 in 10.0 mi Calm Calm - N/A   Clear
6:53 PM 25.0 °F 19.3 °F 17.1 °F 72% 30.09 in 10.0 mi South 4.6 mph - N/A   Clear
7:53 PM 27.0 °F 23.0 °F 18.0 °F 69% 30.10 in 10.0 mi SSW 3.5 mph - N/A   Clear
8:53 PM 27.0 °F 23.0 °F 18.0 °F 69% 30.10 in 10.0 mi SW 3.5 mph - N/A   Clear
9:53 PM 19.9 °F - 15.1 °F 81% 30.09 in 10.0 mi Calm Calm - N/A   Clear
10:53 PM 16.0 °F - 12.0 °F 84% 30.09 in 10.0 mi Calm Calm - N/A   Clear
11:53 PM 14.0 °F - 9.0 °F 80% 30.09 in 10.0 mi Calm Calm - N/A   Clear